Flag for Portugal

Past Weather in Beja, Portugal — Yesterday and Last 2 Weeks

Now
70 °F

Sprinkles. Broken clouds.


Feels Like: 70 °F
Forecast: 78 / 61 °F
Wind: 8 mph from Southwest

Location: Beja Airport
Current Time: Sep 23, 2020 at 12:15:03 pm
Latest Report: Sep 23, 2020 at 11:00 am
Visibility: N/A
Pressure30.01 "Hg
Humidity: 78%
Dew Point: 63 °F
Location of BejaLocation

Past Weather in Beja — Graph

°F

Beja Temperature Yesterday

Maximum temperature yesterday: 79 °F (at 4:00 pm)
Minimum temperature yesterday: 57 °F (at 8:00 am)
Average temperature yesterday: 68 °F

High & Low Weather Summary for the Past Weeks

 TemperatureHumidityPressure
High95 °F (Sep 12, 4:00 pm)100% (Sep 19, 7:00 am)30.21 "Hg (Sep 19, 7:00 am)
Low57 °F (Sep 22, 8:00 am)20% (Sep 12, 4:00 pm)29.77 "Hg (Sep 18, 1:11 pm)
Average72 °F67%30.03 "Hg
* Reported Sep 8 10:00 am — Sep 23 10:00 am, Beja. Weather by CustomWeather, © 2020

Note: Actual official high and low records may vary slightly from our data, if they occured in-between our weather recording intervals... More about our weather records

Beja Weather History for the Previous 24 Hours

Scroll right to see more
 ConditionsComfort  
Time TempWeatherWind HumidityBarometerVisibility
10:00 am
Wed, Sep 23
70 °FBroken clouds.9 mph83%30.01 "HgN/A
9:00 am66 °FScattered clouds.8 mph94%29.98 "HgN/A
8:00 am63 °FScattered clouds.7 mph100%29.98 "HgN/A
7:00 am64 °FPassing clouds.7 mph94%29.98 "HgN/A
6:00 am64 °FPassing clouds.6 mph94%29.98 "HgN/A
5:00 am64 °FPassing clouds.3 mph94%29.98 "HgN/A
4:00 am64 °FPassing clouds.3 mph94%29.98 "HgN/A
3:00 am64 °FPassing clouds.6 mph94%29.98 "HgN/A
2:00 am64 °FPassing clouds.6 mph94%30.01 "HgN/A
1:00 am64 °FPassing clouds.5 mph94%30.01 "HgN/A
12:00 am64 °FClear.5 mph94%30.01 "Hg10 mi
11:00 pm
Tue, Sep 22
66 °FClear.5 mph88%30.04 "Hg10 mi
10:00 pm66 °FClear.8 mph83%30.04 "Hg10 mi
9:00 pm68 °FClear.9 mph78%30.01 "Hg10 mi
8:00 pm72 °FClear.10 mph65%30.01 "Hg10 mi
7:00 pm75 °FSunny.13 mph57%29.98 "Hg10 mi
6:00 pm79 °FPassing clouds.6 mph48%29.98 "HgN/A
5:00 pm79 °FPassing clouds.5 mph45%29.98 "HgN/A
4:00 pm79 °FPassing clouds.6 mph45%30.01 "HgN/A
3:00 pm77 °FScattered clouds.7 mph51%30.01 "HgN/A
2:00 pm75 °FPassing clouds.6 mph57%30.04 "HgN/A
1:00 pm73 °FScattered clouds.6 mph61%30.07 "HgN/A
12:00 pm73 °FScattered clouds.5 mph61%30.07 "HgN/A
Weather by CustomWeather, © 2020

See weather overview